[[{"header":{"parameterUnit":"m.s-1","parameterCategory":1,"la1":30.2991,"la2":30.254,"lo1":-89.0895,"lo2":-89.0444,"dy":0.0017,"dx":0.0017,"nx":28,"ny":28,"refTime":"2025-04-05T09:00:00:Z","depth":0,"parameterNumber":2,"parameterNumberName":"U-component_of_WINDS"},"data":[0,0,0,0,0,0,0,0,0,0,0,0,0,0,0,0,0,0,0,0,0,0,0,0,0,0,0,0,0,0,0,0,0,0,0,0,0,0,0,0,0,0,0,0,0,0,0,0,0,0,0,0,0,0,0,0,0,0,2.4376,2.4375,0,2.4291,2.429,2.4289,2.4152,2.4149,2.4147,2.4145,2.4063,2.4063,2.4063,0,0,0,0,0,0,0,0,0,0,0,0,0,2.4427,2.4427,2.4376,2.4375,2.4374,2.4291,2.429,2.4289,2.4152,2.4149,2.4146,2.4143,2.4063,2.4063,2.4064,0,0,0,0,0,0,0,0,0,0,0,0,0,2.438,2.4427,2.4376,2.4296,2.4288,2.4291,2.429,2.4288,2.4153,2.4149,2.4145,2.4142,2.4063,2.4063,2.4064,2.4141,0,0,2.4064,2.4064,0,0,0,0,0,0,0,0,2.4383,2.4378,2.4309,2.4301,2.4292,2.4228,2.4278,2.4239,2.4154,2.4204,2.4144,2.414,2.4121,2.4117,2.4109,2.4137,2.4133,2.4064,2.4065,2.4065,2.4065,0,0,0,0,0,0,0,2.4386,2.4381,2.4342,2.4308,2.4298,2.4266,2.4255,2.427,2.4185,2.42,2.4189,2.4181,2.4116,2.4109,2.4106,2.4132,2.4064,2.4065,2.4065,2.4065,2.4222,2.4226,0,0,0,0,0,0,2.4401,2.4385,2.4345,2.434,2.4329,2.4268,2.4256,2.4253,2.4185,2.4171,2.4184,2.4175,2.4111,2.4106,2.4103,2.419,2.4065,2.4065,2.4065,2.4218,2.4223,2.4227,0,0,0,0,0,0,2.4402,2.4398,2.4349,2.436,2.4351,2.4271,2.4269,2.4253,2.4246,2.4173,2.4158,2.4192,2.4107,2.4103,2.4132,2.4186,2.4065,2.4065,2.4213,2.4219,2.4225,2.4365,0,0,0,0,0,0,2.4404,2.44,2.4427,2.4361,2.4351,2.4378,2.4272,2.4254,2.4246,2.4233,2.4176,2.4164,2.4104,2.4133,2.4133,2.4184,2.4065,2.4208,2.4216,2.4223,2.4356,2.4375,2.4392,0,0,0,0,0,2.4407,2.447,2.4429,2.4425,2.4382,2.4381,2.4376,2.4304,2.4251,2.4278,2.4232,2.4165,2.418,2.4137,2.4136,2.4188,2.4204,2.4214,2.4222,2.4347,2.4372,2.4392,0,0,0,0,0,0,2.4545,2.446,2.4413,2.4457,2.4427,2.4358,2.439,2.4332,2.4318,2.4307,2.422,2.4209,2.4251,2.4222,2.4176,2.426,2.4182,2.4191,2.4278,2.43,2.4318,2.4325,2.4066,0,0,0,0,0,2.4581,2.4585,2.4511,2.4557,2.4545,2.4471,2.4468,2.4415,2.4382,2.4369,2.4325,2.4297,2.4295,2.4295,2.429,2.4351,2.4338,2.4386,2.4404,2.442,2.4429,2.4462,2.4483,2.4257,2.4256,2.4256,0,0,2.4655,2.4609,2.4617,2.4584,2.4555,2.4564,2.4461,2.4474,2.4481,2.4371,2.4397,2.4364,2.4327,2.4374,2.4392,2.4351,2.4489,2.4431,2.4444,2.4445,2.4473,2.4495,2.4514,2.4263,2.4262,2.4261,0,0,2.4794,2.4758,2.4794,2.4767,2.4724,2.4674,2.4683,2.4623,2.4597,2.462,2.454,2.4547,2.4545,2.4523,2.4511,2.4644,2.4584,2.4645,2.4742,2.4774,2.4792,2.4807,2.4857,2.4875,2.4654,2.4655,2.4655,0,2.4892,2.4899,2.482,2.4839,2.4828,2.4728,2.4765,2.4743,2.4702,2.4698,2.4652,2.4648,2.4616,2.4657,2.469,2.4683,2.4693,2.4651,2.4795,2.481,2.4823,2.487,2.4888,2.4663,2.4662,2.4661,2.466,0,2.5023,2.503,2.5064,2.5025,2.5018,2.5046,2.4973,2.4976,2.4925,2.4882,2.4909,2.4867,2.4852,2.4858,2.4808,2.4893,2.4869,2.4811,2.473,2.4854,2.4896,2.4913,2.4674,2.4671,2.4669,2.4667,0,0,2.5247,2.5164,2.5178,2.516,2.5106,2.5111,2.5136,2.512,2.5125,2.51,2.512,2.5122,2.5068,2.5055,2.5002,2.5031,2.5142,2.4969,2.4967,2.5004,2.5235,2.528,2.5301,2.5101,2.5104,2.5106,2.5238,0,2.5376,2.5411,2.5342,2.5395,2.5402,2.5309,2.533,2.5301,2.5262,2.5264,2.522,2.5224,2.5151,2.5143,2.5167,2.5123,2.5187,2.5113,2.5121,2.5122,2.5134,2.5323,2.537,2.5497,2.5254,2.5257,2.5259,0,2.5531,2.5514,2.5568,2.5512,2.5512,2.5533,2.5514,2.5516,2.5482,2.5451,2.5438,2.5376,2.5399,2.5321,2.5352,2.5303,2.5303,2.5282,2.5285,2.5284,2.5199,2.5329,2.5535,2.5555,2.5284,2.5282,2.528,0,2.5692,2.5682,2.5713,2.57,2.5635,2.5653,2.5627,2.5589,2.5584,2.5568,2.5565,2.5552,2.5546,2.5539,2.5476,2.5425,2.5516,2.5432,2.5493,2.5495,2.5518,2.5517,2.5729,2.5516,2.5515,2.5515,2.5515,0,2.5845,2.5882,2.5784,2.5804,2.5843,2.5764,2.5806,2.5771,2.5739,2.5751,2.567,2.5684,2.5599,2.5605,2.5557,2.5591,2.5589,2.5566,2.5553,2.5574,2.5578,2.5574,2.5564,2.552,2.5519,2.5518,2.5517,0,2.6031,2.5966,2.5995,2.5931,2.5917,2.5949,2.5896,2.5912,2.5868,2.5885,2.5885,2.5816,2.5818,2.5755,2.5745,2.5712,2.577,2.574,2.5781,2.5772,2.5837,2.5833,2.6054,2.608,2.585,2.5852,2.5854,0,2.6133,2.616,2.6099,2.6101,2.6079,2.6084,2.6078,2.6002,2.6001,2.5965,2.5987,2.5982,2.5975,2.5984,2.5934,2.5927,2.5897,2.5976,2.5896,2.5917,2.5901,2.59,2.5904,2.5993,2.5996,2.5998,2.6,0,2.6323,2.629,2.6284,2.6269,2.6265,2.6249,2.6229,2.6236,2.6152,2.6155,2.6156,2.6151,2.614,2.6138,2.6122,2.6097,2.6037,2.6026,2.6039,2.6062,2.6085,2.6075,2.5828,2.6021,2.6019,2.6017,2.6016,2.6015,2.6471,2.6491,2.6452,2.6449,2.6426,2.6409,2.6421,2.6378,2.6377,2.6362,2.6318,2.6327,2.6294,2.6265,2.6247,2.6254,2.6216,2.6236,2.6241,2.6248,2.626,2.6083,2.6251,2.625,2.625,2.6249,2.6249,0,2.6658,2.6628,2.6626,2.66,2.6599,2.6539,2.6514,2.6518,2.6526,2.65,2.6494,2.6497,2.6494,2.6445,2.6437,2.6453,2.6425,2.6453,2.6452,2.6448,2.6294,2.6284,2.6476,2.6476,2.6476,2.6476,2.6476,2.6476,2.6755,2.6785,2.6748,2.6768,2.6738,2.6745,2.6736,2.6721,2.67,2.6706,2.6703,2.667,2.6635,2.6624,2.662,2.6606,2.6607,2.6646,2.6623,2.6481,2.6459,2.6438,2.6427,2.6647,2.6647,2.6775,2.6777,2.6778]},{"header":{"parameterUnit":"m.s-1","parameterCategory":1,"la1":30.2991,"la2":30.254,"lo1":-89.0895,"lo2":-89.0444,"dy":0.0017,"dx":0.0017,"nx":28,"ny":28,"refTime":"2025-04-05T09:00:00:Z","depth":0,"parameterNumber":3,"parameterNumberName":"V-component_of_WINDS"},"data":[0,0,0,0,0,0,0,0,0,0,0,0,0,0,0,0,0,0,0,0,0,0,0,0,0,0,0,0,0,0,0,0,0,0,0,0,0,0,0,0,0,0,0,0,0,0,0,0,0,0,0,0,0,0,0,0,0,0,1.701,1.7018,0,1.778,1.7789,1.7798,1.8036,1.8032,1.8028,1.8024,1.8833,1.8858,1.8883,0,0,0,0,0,0,0,0,0,0,0,0,0,1.576,1.5782,1.7009,1.7019,1.7028,1.7779,1.7789,1.78,1.8036,1.8032,1.8027,1.8023,1.8825,1.8855,1.8885,0,0,0,0,0,0,0,0,0,0,0,0,0,1.6394,1.5789,1.7007,1.7236,1.7264,1.7777,1.779,1.7803,1.8037,1.8032,1.8026,1.8021,1.8815,1.8852,1.8889,1.9235,0,0,1.9004,1.902,0,0,0,0,0,0,0,0,1.6358,1.644,1.7193,1.7221,1.7254,1.7805,1.7646,1.8284,1.8039,1.7744,1.8024,1.8018,1.8497,1.8561,1.8719,1.9273,1.9308,1.9007,1.903,1.9046,1.9057,0,0,0,0,0,0,0,1.6314,1.6408,1.7315,1.7204,1.7241,1.7306,1.739,1.7768,1.8144,1.777,1.7789,1.7876,1.8513,1.8682,1.8739,1.932,1.9006,1.904,1.9063,1.9078,2.0199,2.0206,0,0,0,0,0,0,1.6228,1.637,1.729,1.7338,1.6782,1.7333,1.7427,1.7635,1.8141,1.8212,1.788,1.7884,1.862,1.8695,1.8769,1.9209,1.9046,1.9081,1.9103,2.0192,2.0201,2.0209,0,0,0,0,0,0,1.62,1.6308,1.7259,1.6859,1.6985,1.7361,1.7592,1.7653,1.7821,1.8223,1.8294,1.7981,1.8619,1.8716,1.9117,1.924,1.9098,1.9132,2.0184,2.0195,2.0205,2.009,0,0,0,0,0,0,1.6163,1.6296,1.6428,1.686,1.7005,1.7588,1.76,1.7672,1.7883,1.7896,1.8338,1.8406,1.8622,1.9059,1.9154,1.9289,1.9162,2.0174,2.0189,2.0201,2.0084,2.0095,2.0105,0,0,0,0,0,1.6118,1.6369,1.6433,1.6543,1.7177,1.7595,1.7679,1.7917,1.7892,1.803,1.8288,1.8392,1.9209,1.9098,1.9207,1.9355,2.0168,2.0185,2.02,2.008,2.0093,2.0104,0,0,0,0,0,0,1.5949,1.643,1.6507,1.6904,1.7205,1.7634,1.7816,1.7923,1.8244,1.8243,1.8531,1.8629,1.9009,1.9223,1.9089,1.9718,1.9694,1.9732,1.9564,1.9581,1.959,1.9533,1.9193,0,0,0,0,0,1.5956,1.6249,1.6657,1.6968,1.7115,1.7438,1.7629,1.7785,1.8113,1.8244,1.8532,1.8851,1.9181,1.9392,1.9718,2.0115,2.0217,2.0271,2.0281,2.0287,2.0319,2.0547,2.0577,2.0262,2.0262,2.0262,0,0,1.5978,1.6277,1.6446,1.6941,1.7194,1.7497,1.7545,1.7864,1.8093,1.8296,1.869,1.8911,1.9287,1.9687,1.9878,1.9877,2.0427,2.0308,2.031,2.034,2.0567,2.0596,2.0622,2.0273,2.0271,2.027,0,0,1.6172,1.6425,1.6713,1.6963,1.7342,1.7555,1.7622,1.8036,1.8188,1.8587,1.8745,1.9025,1.9585,1.9846,2.0052,2.0341,2.045,2.0439,2.0495,2.0713,2.0738,2.0762,2.0867,2.0902,2.0469,2.0468,2.0468,0,1.6153,1.6609,1.6849,1.7159,1.7373,1.7562,1.7858,1.8092,1.856,1.8707,1.8697,1.9403,1.967,2.0134,2.0203,2.0363,2.0454,2.0392,2.0714,2.074,2.0766,2.087,2.0909,2.0465,2.0465,2.0466,2.0466,0,1.6568,1.6882,1.707,1.7509,1.7745,1.8047,1.8337,1.8548,1.8682,1.8897,1.9303,1.9627,2.0022,2.0143,2.0281,2.0629,2.0616,2.0656,2.0638,2.0788,2.0891,2.0932,2.046,2.0461,2.0462,2.0463,0,0,1.6682,1.7245,1.731,1.7512,1.7942,1.8193,1.8504,1.8883,1.906,1.9376,1.9648,2.0115,2.0154,2.0388,2.0557,2.0748,2.0958,2.0767,2.078,2.0793,2.1365,2.1333,2.1375,2.103,2.1039,2.1046,2.1334,0,1.6932,1.7488,1.7712,1.8166,1.8462,1.8644,1.8916,1.9212,1.9421,1.9707,1.9941,2.0268,2.0293,2.0435,2.0632,2.089,2.1078,2.0872,2.1292,2.1304,2.1194,2.1429,2.1398,2.1654,2.1375,2.1382,2.1388,0,1.73,1.7611,1.8091,1.8485,1.8618,1.8857,1.9222,1.9491,1.9832,1.9971,2.0228,2.0385,2.0724,2.0679,2.1153,2.1008,2.1193,2.1345,2.1362,2.1413,2.1357,2.149,2.1742,2.178,2.1453,2.1448,2.1443,0,1.7336,1.7876,1.8234,1.8401,1.8868,1.9032,1.9236,1.957,1.9783,2.0105,2.0247,2.0604,2.0802,2.1078,2.1329,2.1273,2.178,2.1756,2.191,2.1904,2.2012,2.2003,2.2299,2.2124,2.2124,2.2123,2.2122,0,1.7594,1.7882,1.8256,1.8476,1.8806,1.9061,1.9382,1.96,1.9895,2.0165,2.0346,2.0597,2.0912,2.1205,2.1404,2.1767,2.1855,2.1981,2.2031,2.1967,2.1951,2.2095,2.2085,2.2133,2.2131,2.2129,2.2127,0,1.7692,1.7953,1.8355,1.8762,1.8871,1.9096,1.9448,1.9672,1.9886,2.0226,2.0321,2.0662,2.1016,2.1291,2.1755,2.1889,2.2273,2.2327,2.2155,2.2182,2.2321,2.2305,2.2724,2.2794,2.2566,2.2568,2.2569,0,1.7841,1.8066,1.8494,1.8684,1.8884,1.9189,1.9405,1.9667,1.9886,2.029,2.0466,2.0831,2.1137,2.1694,2.1987,2.2343,2.2409,2.253,2.2464,2.2392,2.2415,2.2399,2.2424,2.254,2.2541,2.2542,2.2542,0,1.8078,1.8195,1.8496,1.8843,1.9094,1.9382,1.9674,1.9822,2.0137,2.0375,2.0734,2.0971,2.144,2.1802,2.2186,2.2404,2.2529,2.256,2.2615,2.2554,2.2446,2.2509,2.2181,2.2551,2.255,2.2549,2.2549,2.2548,1.821,1.8417,1.875,1.9081,1.9326,1.9594,1.9823,2.0064,2.0367,2.0764,2.0902,2.1273,2.1611,2.2139,2.2359,2.2657,2.2665,2.2743,2.2764,2.278,2.2775,2.2393,2.2728,2.2728,2.2729,2.2729,2.2729,0,1.8458,1.8679,1.898,1.9379,1.964,1.9725,2.0053,2.0267,2.0589,2.089,2.1185,2.16,2.1951,2.2269,2.2637,2.2815,2.2881,2.2903,2.2895,2.2943,2.2746,2.2663,2.2843,2.2843,2.2843,2.2843,2.2843,2.2842,1.8618,1.8974,1.913,1.9612,1.9836,2.0195,2.0375,2.0625,2.0867,2.1319,2.1609,2.1811,2.2122,2.2512,2.284,2.2925,2.3054,2.3061,2.3161,2.2972,2.2957,2.2943,2.2866,2.3086,2.3086,2.3335,2.3337,2.3338]}]]